• In Hungary
  • List of Countries
  • For 7 days
  • Water Temperature
  • Satellite Maps
  • Weather Map
  • News
  • Weather Widgets
  • user-avatar
    Login

    Hourly Weather Soma Bey

    Today, 22 September, Friday

    Time Temperature Precipitation Wind Pressure Humidity
    00:00 +33°C° 0 mm 5 mps 745 mmHg 27%
    01:00 +32°C° 0 mm 5 mps 745 mmHg 28%
    02:00 +32°C° 0 mm 5 mps 745 mmHg 28%
    03:00 +30°C° 0 mm 5 mps 745 mmHg 29%
    04:00 +30°C° 0 mm 5 mps 746 mmHg 29%
    05:00 +30°C° 0 mm 5 mps 746 mmHg 30%
    06:00 +32°C° 0 mm 6 mps 746 mmHg 28%
    07:00 +34°C° 0 mm 6 mps 746 mmHg 26%
    08:00 +36°C° 0 mm 7 mps 746 mmHg 25%
    09:00 +38°C° 0 mm 8 mps 746 mmHg 23%
    10:00 +39°C° 0 mm 8 mps 746 mmHg 22%
    11:00 +40°C° 0 mm 9 mps 746 mmHg 21%
    12:00 +42°C° 0 mm 9 mps 746 mmHg 20%
    13:00 +41°C° 0 mm 8 mps 745 mmHg 19%
    14:00 +43°C° 0 mm 8 mps 745 mmHg 17%
    15:00 +41°C° 0 mm 8 mps 745 mmHg 18%
    16:00 +41°C° 0 mm 7 mps 745 mmHg 18%
    17:00 +40°C° 0 mm 6 mps 744 mmHg 18%
    18:00 +39°C° 0 mm 6 mps 745 mmHg 20%
    19:00 +37°C° 0 mm 5 mps 745 mmHg 22%
    20:00 +36°C° 0 mm 5 mps 745 mmHg 25%
    21:00 +35°C° 0 mm 5 mps 746 mmHg 27%
    22:00 +34°C° 0 mm 5 mps 746 mmHg 29%
    23:00 +34°C° 0 mm 5 mps 746 mmHg 32%

    Tomorrow, 23 September, Saturday

    Time Temperature Precipitation Wind Pressure Humidity
    00:00 +33°C° 0 mm 5 mps 746 mmHg 33%
    01:00 +33°C° 0 mm 5 mps 746 mmHg 34%
    02:00 +32°C° 0 mm 5 mps 746 mmHg 35%
    03:00 +32°C° 0 mm 5 mps 746 mmHg 35%
    04:00 +30°C° 0 mm 6 mps 746 mmHg 35%
    05:00 +30°C° 0 mm 6 mps 746 mmHg 35%
    06:00 +32°C° 0 mm 6 mps 746 mmHg 32%
    07:00 +34°C° 0 mm 6 mps 746 mmHg 28%
    08:00 +35°C° 0 mm 6 mps 747 mmHg 24%
    09:00 +38°C° 0 mm 7 mps 747 mmHg 22%
    10:00 +39°C° 0 mm 7 mps 747 mmHg 20%
    11:00 +40°C° 0 mm 7 mps 747 mmHg 19%
    12:00 +41°C° 0 mm 7 mps 746 mmHg 19%
    13:00 +41°C° 0 mm 7 mps 746 mmHg 19%
    14:00 +41°C° 0 mm 7 mps 745 mmHg 19%
    15:00 +40°C° 0 mm 7 mps 745 mmHg 21%
    16:00 +40°C° 0 mm 7 mps 745 mmHg 23%
    17:00 +39°C° 0 mm 7 mps 745 mmHg 25%
    18:00 +38°C° 0 mm 6 mps 745 mmHg 28%
    19:00 +35°C° 0 mm 5 mps 746 mmHg 31%
    20:00 +34°C° 0 mm 4 mps 746 mmHg 34%
    21:00 +34°C° 0 mm 5 mps 746 mmHg 35%
    22:00 +33°C° 0 mm 5 mps 747 mmHg 36%
    23:00 +33°C° 0 mm 5 mps 747 mmHg 37%

    Day after tomorrow, 24 September, Sunday

    Time Temperature Precipitation Wind Pressure Humidity
    00:00 +32°C° 0 mm 5 mps 747 mmHg 39%
    01:00 +30°C° 0 mm 5 mps 747 mmHg 40%
    02:00 +30°C° 0 mm 6 mps 746 mmHg 42%
    03:00 +29°C° 0 mm 6 mps 746 mmHg 43%
    04:00 +28°C° 0 mm 6 mps 746 mmHg 43%
    05:00 +28°C° 0 mm 6 mps 746 mmHg 44%
    06:00 +29°C° 0 mm 6 mps 747 mmHg 40%
    07:00 +30°C° 0 mm 6 mps 747 mmHg 36%
    08:00 +32°C° 0 mm 5 mps 748 mmHg 33%
    09:00 +33°C° 0 mm 5 mps 747 mmHg 30%
    10:00 +35°C° 0 mm 5 mps 747 mmHg 28%
    11:00 +36°C° 0 mm 5 mps 747 mmHg 25%
    12:00 +37°C° 0 mm 5 mps 747 mmHg 25%
    13:00 +38°C° 0 mm 6 mps 746 mmHg 24%
    14:00 +39°C° 0 mm 6 mps 746 mmHg 24%
    15:00 +37°C° 0 mm 5 mps 746 mmHg 27%
    16:00 +36°C° 0 mm 5 mps 746 mmHg 30%
    17:00 +36°C° 0 mm 4 mps 746 mmHg 32%
    18:00 +34°C° 0 mm 4 mps 746 mmHg 37%
    19:00 +33°C° 0 mm 4 mps 747 mmHg 41%
    20:00 +32°C° 0 mm 4 mps 747 mmHg 45%
    21:00 +32°C° 0 mm 4 mps 747 mmHg 46%
    22:00 +30°C° 0 mm 3 mps 747 mmHg 47%
    23:00 +30°C° 0 mm 3 mps 747 mmHg 48%

    25 September, Monday

    Time Temperature Precipitation Wind Pressure Humidity
    00:00 +29°C° 0 mm 4 mps 747 mmHg 47%
    01:00 +29°C° 0 mm 4 mps 747 mmHg 46%
    02:00 +29°C° 0 mm 4 mps 746 mmHg 45%
    03:00 +28°C° 0 mm 4 mps 746 mmHg 45%
    04:00 +28°C° 0 mm 4 mps 746 mmHg 45%
    05:00 +28°C° 0 mm 5 mps 746 mmHg 45%
    06:00 +29°C° 0 mm 5 mps 747 mmHg 42%
    07:00 +30°C° 0 mm 5 mps 747 mmHg 38%
    08:00 +33°C° 0 mm 5 mps 747 mmHg 34%
    09:00 +34°C° 0 mm 5 mps 747 mmHg 31%
    10:00 +36°C° 0 mm 5 mps 747 mmHg 27%
    11:00 +37°C° 0 mm 5 mps 747 mmHg 24%
    12:00 +39°C° 0 mm 5 mps 747 mmHg 24%
    13:00 +39°C° 0 mm 5 mps 746 mmHg 23%
    14:00 +40°C° 0 mm 5 mps 746 mmHg 22%
    15:00 +39°C° 0 mm 5 mps 746 mmHg 25%
    16:00 +37°C° 0 mm 4 mps 746 mmHg 27%
    17:00 +36°C° 0 mm 4 mps 746 mmHg 29%
    18:00 +35°C° 0 mm 4 mps 746 mmHg 33%
    19:00 +34°C° 0 mm 4 mps 747 mmHg 36%
    20:00 +33°C° 0 mm 3 mps 747 mmHg 40%
    21:00 +31°C° 0 mm 3 mps 747 mmHg 40%
    22:00 +31°C° 0 mm 3 mps 747 mmHg 39%
    23:00 +30°C° 0 mm 3 mps 747 mmHg 39%

    26 September, Tuesday

    Time Temperature Precipitation Wind Pressure Humidity
    00:00 +30°C° 0 mm 3 mps 747 mmHg 39%
    01:00 +30°C° 0 mm 4 mps 746 mmHg 38%
    02:00 +29°C° 0 mm 4 mps 746 mmHg 38%
    03:00 +29°C° 0 mm 4 mps 746 mmHg 39%
    04:00 +28°C° 0 mm 4 mps 746 mmHg 41%
    05:00 +28°C° 0 mm 5 mps 746 mmHg 42%
    06:00 +29°C° 0 mm 5 mps 747 mmHg 39%
    07:00 +32°C° 0 mm 5 mps 747 mmHg 36%
    08:00 +33°C° 0 mm 5 mps 748 mmHg 32%
    09:00 +35°C° 0 mm 5 mps 748 mmHg 28%
    10:00 +36°C° 0 mm 5 mps 748 mmHg 25%
    11:00 +39°C° 0 mm 6 mps 747 mmHg 21%
    12:00 +39°C° 0 mm 6 mps 747 mmHg 20%
    13:00 +40°C° 0 mm 6 mps 746 mmHg 20%
    14:00 +40°C° 0 mm 6 mps 746 mmHg 19%
    15:00 +39°C° 0 mm 6 mps 746 mmHg 21%
    16:00 +38°C° 0 mm 6 mps 746 mmHg 23%
    17:00 +36°C° 0 mm 5 mps 746 mmHg 26%
    18:00 +35°C° 0 mm 5 mps 747 mmHg 29%
    19:00 +34°C° 0 mm 5 mps 747 mmHg 32%
    20:00 +33°C° 0 mm 4 mps 748 mmHg 36%
    21:00 +32°C° 0 mm 4 mps 748 mmHg 35%
    22:00 +32°C° 0 mm 4 mps 747 mmHg 34%
    23:00 +30°C° 0 mm 4 mps 747 mmHg 33%

    27 September, Wednesday

    Time Temperature Precipitation Wind Pressure Humidity
    00:00 +30°C° 0 mm 4 mps 747 mmHg 33%
    01:00 +30°C° 0 mm 5 mps 747 mmHg 33%
    02:00 +29°C° 0 mm 5 mps 747 mmHg 33%
    03:00 +29°C° 0 mm 5 mps 747 mmHg 34%
    04:00 +28°C° 0 mm 5 mps 747 mmHg 36%
    05:00 +28°C° 0 mm 6 mps 747 mmHg 38%
    06:00 +30°C° 0 mm 6 mps 748 mmHg 33%
    07:00 +32°C° 0 mm 6 mps 748 mmHg 29%
    08:00 +34°C° 0 mm 6 mps 748 mmHg 24%
    09:00 +35°C° 0 mm 6 mps 748 mmHg 22%
    10:00 +36°C° 0 mm 6 mps 748 mmHg 20%
    11:00 +39°C° 0 mm 6 mps 748 mmHg 18%
    12:00 +39°C° 0 mm 6 mps 748 mmHg 19%
    13:00 +39°C° 0 mm 6 mps 747 mmHg 19%
    14:00 +39°C° 0 mm 6 mps 747 mmHg 19%
    15:00 +39°C° 0 mm 6 mps 747 mmHg 21%
    16:00 +37°C° 0 mm 5 mps 747 mmHg 22%
    17:00 +36°C° 0 mm 5 mps 747 mmHg 24%
    18:00 +35°C° 0 mm 5 mps 747 mmHg 27%
    19:00 +34°C° 0 mm 4 mps 748 mmHg 30%
    20:00 +33°C° 0 mm 4 mps 748 mmHg 32%
    21:00 +33°C° 0 mm 4 mps 748 mmHg 32%
    22:00 +32°C° 0 mm 4 mps 748 mmHg 32%
    23:00 +32°C° 0 mm 4 mps 747 mmHg 31%
    Show more